LW7DST Weather Reports


Display with metric or nautical units.
time (UTC)temp
F
wind
direction
speed
MPH
gust
MPH
rain 1hr
in
rain 24hr
in
rain mn
in
humidity
%
barometer
mb
20260505193604 74 59 2.0 6.0 0.00 0.00 0.00 76 1004.0
20260505192704 74 92 1.0 5.0 0.00 0.00 0.00 77 1003.8
20260505191804 74 105 3.0 8.0 0.00 0.00 0.00 76 1003.9
20260505190904 74 73 4.0 8.0 0.00 0.00 0.00 76 1003.9
20260505190213 74 88 2.0 8.0 0.00 0.00 0.00 76 1003.8
20260505185613 74 80 4.0 8.0 0.00 0.00 0.00 76 1003.7
20260505184714 74 90 4.0 7.0 0.00 0.00 0.00 76 1003.7
20260505183604 74 79 1.0 4.0 0.00 0.00 0.00 76 1004.1
20260505182704 74 75 1.0 7.0 0.00 0.00 0.00 76 1004.1
20260505182014 74 102 2.0 5.0 0.00 0.00 0.00 75 1004.2
20260505180904 74 45 1.0 3.0 0.00 0.00 0.00 76 1004.2
20260505180004 74 329 1.0 2.0 0.00 0.00 0.00 76 1004.4
20260505175404 74 358 0.0 3.0 0.00 0.00 0.00 76 1004.3
20260505174504 74 330 2.0 4.0 0.00 0.00 0.00 76 1004.5
20260505173604 74 338 0.0 3.0 0.00 0.00 0.00 77 1004.6
20260505172705 73 325 0.0 4.0 0.00 0.00 0.00 76 1004.8
20260505171804 74 312 1.0 4.0 0.00 0.00 0.00 76 1004.6
20260505170904 73 304 2.0 5.0 0.00 0.00 0.00 76 1004.5
20260505170215 74 347 3.0 5.0 0.00 0.00 0.00 76 1004.6
20260505165404 74 344 3.0 4.0 0.00 0.00 0.00 76 1004.5
20260505164504 73 322 3.0 6.0 0.00 0.00 0.00 78 1004.7
20260505163813 73 340 2.0 7.0 0.00 0.00 0.00 78 1004.8
20260505162704 73 345 4.0 8.0 0.00 0.00 0.00 78 1004.8
20260505161803 73 356 4.0 9.0 0.00 0.00 0.00 78 1004.8
20260505160904 72 9 4.0 13.0 0.00 0.00 0.00 79 1004.9
20260505160214 72 334 3.0 12.0 0.00 0.00 0.00 79 1005.0
20260505152704 72 357 7.0 12.0 0.00 0.00 0.00 76 1005.4
20260505151804 72 349 5.0 13.0 0.00 0.00 0.00 75 1005.3
20260505151115 72 332 6.0 8.0 0.00 0.00 0.00 75 1005.6
20260505140214 66 356 4.0 6.0 0.00 0.00 0.00 87 1005.9
20260505124504 63 360 1.0 2.0 0.00 0.00 0.00 86 1005.4
20260505123603 63 360 4.0 6.0 0.00 0.00 0.00 86 1005.4
20260505122915 63 357 4.0 7.0 0.00 0.00 0.00 86 1005.3
20260505122014 62 18 3.0 4.0 0.00 0.00 0.00 87 1005.3
20260505120904 62 13 3.0 5.0 0.00 0.00 0.00 87 1005.2
20260505120005 61 37 4.0 5.0 0.00 0.00 0.00 88 1005.2
20260505115614 61 29 4.0 5.0 0.00 0.00 0.00 88 1005.2
20260505114504 61 351 4.0 16.0 0.00 0.00 0.00 88 1004.8
20260505113605 60 360 5.0 6.0 0.00 0.00 0.00 87 1005.0
20260505112704 60 0 0.0 0.0 0.00 0.00 0.00 87 1004.5
20260505111803 60 0 0.0 0.0 0.00 0.00 0.00 87 1004.5
20260505110905 59 0 0.0 0.0 0.00 0.00 0.00 86 1004.2
20260505101804 59 0 0.0 0.0 0.00 0.00 0.00 87 1004.1
20260505100904 59 0 0.0 0.0 0.00 0.00 0.00 87 1003.9
20260505100004 58 349 0.0 2.0 0.00 0.00 0.00 87 1003.8
20260505095404 58 356 1.0 2.0 0.00 0.00 0.00 87 1003.7
20260505094504 58 360 1.0 3.0 0.00 0.00 0.00 87 1003.5
20260505093604 58 360 2.0 3.0 0.00 0.00 0.00 87 1003.4
20260505092704 58 180 0.0 2.0 0.00 0.00 0.00 87 1003.7
20260505091804 57 180 1.0 2.0 0.00 0.00 0.00 87 1003.7
20260505090904 57 0 0.0 0.0 0.00 0.00 0.00 88 1003.6
20260505090214 57 360 0.0 2.0 0.00 0.00 0.00 88 1003.8
20260505085404 57 0 0.0 0.0 0.00 0.00 0.00 88 1003.6
20260505084504 56 0 0.0 0.0 0.00 0.00 0.00 88 1003.5
20260505083604 56 0 0.0 0.0 0.00 0.00 0.00 87 1003.3
20260505082704 56 0 0.0 0.0 0.00 0.00 0.00 87 1003.5
20260505081804 56 0 0.0 0.0 0.00 0.00 0.00 87 1003.4
20260505080904 56 0 0.0 0.0 0.00 0.00 0.00 86 1003.5
20260505080004 56 0 0.0 0.0 0.00 0.00 0.00 85 1003.4
20260505075404 55 0 0.0 0.0 0.00 0.00 0.00 84 1003.3
20260505074504 55 0 0.0 0.0 0.00 0.00 0.00 84 1003.4
20260505073604 55 0 0.0 0.0 0.00 0.00 0.00 84 1003.3
20260505072704 55 0 0.0 0.0 0.00 0.00 0.00 84 1003.0
20260505071804 56 0 0.0 0.0 0.00 0.00 0.00 84 1003.0
20260505070904 56 0 0.0 0.0 0.00 0.00 0.00 84 1003.2
20260505070004 56 315 0.0 2.0 0.00 0.00 0.00 84 1002.9
20260505065404 56 326 0.0 2.0 0.00 0.00 0.00 83 1003.0
20260505064714 56 356 0.0 2.0 0.00 0.00 0.00 83 1003.0
20260505063604 56 334 1.0 2.0 0.00 0.00 0.00 83 1003.2
20260505062914 57 0 0.0 0.0 0.00 0.00 0.00 82 1003.1
20260505061804 57 0 0.0 0.0 0.00 0.00 0.00 82 1003.2
20260505060904 57 0 0.0 0.0 0.00 0.00 0.00 81 1003.3
20260505060005 57 0 0.0 0.0 0.00 0.00 0.00 80 1003.1
20260505055404 57 315 0.0 2.0 0.00 0.00 0.00 80 1003.4
20260505054714 58 318 1.0 2.0 0.00 0.00 0.00 80 1003.5
20260505053815 58 347 1.0 2.0 0.00 0.00 0.00 80 1003.5
20260505052704 58 323 1.0 2.0 0.00 0.00 0.00 80 1003.7
20260505051804 58 352 1.0 3.0 0.00 0.00 0.00 80 1003.6
20260505050904 58 360 2.0 3.0 0.00 0.00 0.00 80 1003.6
20260505040904 58 360 2.0 3.0 0.00 0.00 0.00 83 1003.4
20260505040005 58 0 0.0 0.0 0.00 0.00 0.00 83 1003.5
20260505035404 57 0 0.0 0.0 0.00 0.00 0.00 83 1003.6
20260505034504 57 0 0.0 0.0 0.00 0.00 0.00 81 1003.5
20260505033604 57 0 0.0 0.0 0.00 0.00 0.00 81 1003.5
20260505032913 57 0 0.0 0.0 0.00 0.00 0.00 81 1003.8
20260505031805 58 0 0.0 0.0 0.00 0.00 0.00 81 1003.4
20260505030904 58 360 0.0 2.0 0.00 0.00 0.00 81 1003.3
20260505030007 58 360 2.0 3.0 0.00 0.00 0.00 81 1003.2
20260505025404 58 360 0.0 1.0 0.00 0.00 0.00 82 1003.6
20260505024714 58 360 0.0 1.0 0.00 0.00 0.00 82 1003.7
20260505023604 57 360 0.0 2.0 0.00 0.00 0.00 82 1003.4
20260505022704 57 360 2.0 2.0 0.00 0.00 0.00 82 1003.5
20260505021804 56 0 0.0 0.0 0.00 0.00 0.00 80 1003.6
20260505020904 56 0 0.0 0.0 0.00 0.00 0.00 80 1003.5
20260505020005 56 0 0.0 0.0 0.00 0.00 0.00 79 1003.5
20260505015615 56 0 0.0 0.0 0.00 0.00 0.00 78 1003.7
20260505014714 57 0 0.0 0.0 0.00 0.00 0.00 78 1003.6
20260505013604 57 0 0.0 0.0 0.00 0.00 0.00 77 1003.5
20260505012704 57 0 0.0 0.0 0.00 0.00 0.00 75 1003.3
20260505011804 58 0 0.0 0.0 0.00 0.00 0.00 74 1003.0
20260505011113 58 0 0.0 0.0 0.00 0.00 0.00 74 1003.0
20260505010004 59 0 0.0 0.0 0.00 0.00 0.00 72 1003.0
20260505005404 60 360 2.0 3.0 0.00 0.00 0.00 72 1003.0
20260505004503 60 360 2.0 3.0 0.00 0.00 0.00 72 1003.0
20260505003605 60 360 2.0 3.0 0.00 0.00 0.00 72 1002.7
20260505002704 60 10 2.0 4.0 0.00 0.00 0.00 71 1002.6
20260505001804 60 58 1.0 3.0 0.00 0.00 0.00 71 1002.6
20260505000904 60 5 2.0 4.0 0.00 0.00 0.00 72 1002.7
20260505000004 60 360 3.0 4.0 0.00 0.00 0.00 71 1002.6
20260504235404 60 0 0.0 0.0 0.00 0.00 0.00 70 1002.6
20260504234504 60 0 0.0 0.0 0.00 0.00 0.00 70 1002.6
20260504233604 60 0 0.0 0.0 0.00 0.00 0.00 70 1002.5
20260504232705 60 0 0.0 0.0 0.00 0.00 0.00 69 1002.8
20260504231804 60 0 0.0 0.0 0.00 0.00 0.00 69 1002.5
20260504230905 60 0 0.0 0.0 0.00 0.00 0.00 69 1002.4
20260504230005 60 0 0.0 0.0 0.00 0.00 0.00 67 1002.4
20260504225404 60 0 0.0 0.0 0.00 0.00 0.00 66 1002.5
20260504224504 60 0 0.0 0.0 0.00 0.00 0.00 66 1002.2
20260504223604 61 0 0.0 0.0 0.00 0.00 0.00 65 1001.9
20260504222704 62 0 0.0 0.0 0.00 0.00 0.00 63 1002.0
20260504221804 62 303 0.0 2.0 0.00 0.00 0.00 61 1001.8
20260504220904 63 359 0.0 3.0 0.00 0.00 0.00 61 1002.0
20260504220005 63 352 2.0 2.0 0.00 0.00 0.00 58 1001.8
20260504215404 64 0 0.0 0.0 0.00 0.00 0.00 57 1001.8
20260504214505 65 0 0.0 0.0 0.00 0.00 0.00 55 1001.9
20260504213605 65 321 0.0 2.0 0.00 0.00 0.00 55 1001.7
20260504212704 66 331 0.0 2.0 0.00 0.00 0.00 54 1001.6
20260504211804 67 350 1.0 3.0 0.00 0.00 0.00 52 1001.7
20260504211114 68 343 2.0 3.0 0.00 0.00 0.00 52 1001.8
20260504210213 68 4 2.0 4.0 0.00 0.00 0.00 50 1001.7
20260504205403 69 353 4.0 4.0 0.00 0.00 0.00 50 1001.8
20260504204504 70 340 3.0 7.0 0.00 0.00 0.00 46 1002.0
20260504203605 71 343 4.0 7.0 0.00 0.00 0.00 43 1001.8
20260504202704 71 342 2.0 7.0 0.00 0.00 0.00 41 1001.8
20260504201804 70 344 2.0 6.0 0.00 0.00 0.00 40 1001.7
20260504200905 70 339 3.0 8.0 0.00 0.00 0.00 41 1001.5
20260504200215 70 354 3.0 10.0 0.00 0.00 0.00 42 1001.6
20260504195614 70 349 4.0 11.0 0.00 0.00 0.00 42 1001.6
20260504194503 70 343 6.0 8.0 0.00 0.00 0.00 43 1001.7